Wind_Speed
19 17 16 15 13 13 13 13 12 10 10 12 13 13 13 13 15 15 15 14 13 13 14 13 11 9 9 13 14 13 12 11 10 10 9 9 9 10 9 9 11 11 10 9 10 11 11 10 9 9 10 10 10 10 10 11 12 13 13 13 14 14 14 13 13 13 14 15 17 19 22 24 26 28 30 32 34 35 35 34 31 27 25 26 29 29 28
18 17 16 15 14 14 14 15 15 13 12 12 13 14 13 13 15 16 15 15 14 15 16 14 12 10 10 13 14 13 12 11 10 10 10 9 10 10 10 8 9 9 8 7 6 7 8 8 8 8 8 9 9 9 9 10 12 13 14 14 15 15 15 15 15 15 15 16 18 21 24 26 30 32 35 36 37 39 39 37 33 30 30 31 32 31 31
18 17 16 16 16 16 16 16 16 15 14 13 14 15 14 14 14 15 15 15 15 16 17 17 15 13 13 14 13 13 13 11 10 11 11 11 11 11 11 9 8 7 7 6 5 6 7 8 9 9 9 9 9 9 10 10 12 13 15 16 17 17 18 19 19 18 18 19 21 23 25 29 34 37 39 39 39 40 40 39 35 33 33 33 33 32 33
17 17 17 18 19 20 18 16 15 16 16 15 16 15 14 14 15 16 16 16 16 17 17 17 17 16 15 14 14 15 14 13 12 13 13 12 11 12 12 12 11 10 8 8 9 10 11 12 12 13 13 13 13 13 14 14 14 16 18 19 20 21 22 22 23 23 24 24 24 25 28 32 37 41 41 40 40 40 41 40 37 34 34 34 33 32 35
17 18 19 19 21 22 19 15 14 16 16 16 16 15 14 14 15 16 17 17 18 18 16 15 16 15 15 15 15 16 16 16 15 15 15 14 12 11 12 12 12 12 11 11 11 13 15 16 17 18 19 19 18 19 20 20 20 20 22 23 24 25 25 25 25 25 26 26 27 28 31 36 40 43 43 42 41 41 42 42 39 36 35 35 35 36 39
17 19 21 21 22 21 18 16 16 16 16 15 15 15 15 15 15 15 16 17 18 17 15 15 15 14 14 14 14 15 17 18 18 17 17 16 13 11 13 13 13 13 13 12 12 14 15 17 18 20 20 21 21 21 22 23 23 23 24 25 27 28 29 29 27 26 26 27 28 31 33 37 41 45 45 44 44 43 44 43 41 37 36 36 37 40 43
17 19 21 21 21 20 19 18 16 16 16 15 15 15 15 14 14 14 16 18 18 17 16 16 15 15 14 13 12 13 15 18 18 18 18 17 15 13 13 13 13 13 13 13 14 15 16 17 19 20 20 21 22 22 23 24 25 25 26 28 29 31 32 31 30 28 28 28 30 31 33 37 42 46 46 46 46 45 45 45 42 40 38 38 39 43 47
18 18 20 21 21 21 21 19 17 17 17 16 16 16 16 16 16 16 17 19 21 19 17 17 16 15 15 13 11 12 15 18 19 18 18 18 17 15 13 13 12 12 13 14 15 16 17 18 20 21 21 22 23 23 24 25 26 27 27 29 30 32 32 31 29 28 28 29 30 31 33 38 43 46 47 48 47 47 47 47 45 43 42 42 44 48 51
21 21 21 22 22 23 22 20 18 18 19 18 17 17 18 19 19 18 17 18 21 21 19 18 17 16 16 15 14 13 15 18 18 17 18 18 17 17 16 15 16 16 17 18 18 18 19 20 21 22 23 24 24 25 25 26 27 28 29 30 31 33 32 30 29 28 28 30 31 32 35 40 45 47 49 49 49 49 50 50 49 48 46 47 49 52 53
25 24 24 24 25 24 22 21 20 20 20 20 18 18 21 21 19 18 17 18 19 19 18 18 18 18 19 18 16 14 14 16 17 17 17 17 17 18 18 19 21 22 21 22 22 22 22 23 24 24 25 26 27 27 27 28 29 30 31 32 33 34 34 32 30 30 31 33 34 36 38 43 47 49 51 52 52 53 54 54 53 51 51 51 52 53 53
29 27 27 27 26 25 22 22 24 23 23 22 21 21 22 20 18 18 19 20 19 18 17 18 20 21 21 19 17 16 16 17 17 18 19 19 19 20 21 22 25 25 24 23 24 24 25 26 27 27 28 28 29 30 30 30 31 32 33 34 35 36 36 33 32 32 34 37 39 39 41 45 49 52 54 55 55 56 57 56 55 54 54 54 54 55 55
31 30 30 29 28 27 25 25 26 27 26 25 24 23 22 20 19 20 22 21 20 19 19 20 21 21 20 20 20 20 20 21 20 20 20 20 20 21 23 25 26 25 25 25 25 26 27 28 29 30 30 30 31 32 32 33 33 34 35 36 38 38 37 35 34 34 37 40 42 43 45 48 52 56 57 58 59 59 58 56 56 56 56 57 57 56 56
33 32 32 31 30 29 29 27 27 27 28 28 27 26 25 23 22 23 23 22 21 21 21 21 21 21 22 22 23 23 23 23 23 21 20 19 20 21 23 24 24 24 26 27 27 27 28 29 30 31 31 32 32 32 33 34 35 36 38 39 40 40 38 37 36 38 41 44 46 47 49 52 56 59 60 61 62 60 57 56 57 58 58 58 58 57 57
34 34 34 33 32 32 31 30 29 29 29 29 29 28 27 25 24 24 24 24 23 23 22 23 23 24 24 24 24 24 24 24 24 22 21 20 21 22 22 23 24 26 28 29 29 29 29 30 31 31 32 32 33 34 35 36 37 39 40 42 42 42 40 39 40 42 45 47 49 50 52 54 59 62 63 64 63 60 58 58 58 59 59 59 59 59 58
35 35 35 35 34 34 32 31 31 31 31 31 32 31 28 26 24 24 25 25 25 24 24 25 25 26 26 26 26 26 27 27 26 25 24 24 24 24 25 26 28 30 31 31 30 30 30 30 31 32 33 33 34 36 37 39 40 42 43 44 44 42 40 42 44 46 47 48 50 52 54 58 61 64 65 65 63 60 59 60 60 60 60 59 59 60 59
37 35 35 34 34 34 33 31 31 32 33 33 34 33 31 28 27 26 26 27 27 27 27 27 27 27 27 27 27 27 28 28 27 28 28 28 29 29 30 31 31 32 32 32 31 31 30 31 32 33 34 35 37 39 41 43 44 44 44 44 42 41 42 45 47 48 49 50 51 54 57 61 63 65 65 65 62 61 61 61 60 60 59 59 59 58 58
39 38 37 36 35 35 34 34 33 33 33 34 35 34 32 31 30 29 29 29 30 30 30 30 30 29 28 27 27 28 29 29 30 31 32 33 33 33 33 32 31 31 31 31 31 31 31 32 33 34 36 38 40 42 45 46 45 42 41 41 41 42 45 47 48 49 51 52 54 57 61 63 65 65 64 63 62 62 62 61 60 60 59 58 57 56 56
40 40 39 39 38 37 36 36 36 36 35 35 37 37 35 33 33 33 33 34 33 32 31 31 32 32 31 30 30 30 30 31 33 34 35 34 34 33 33 32 31 31 31 31 31 32 32 33 34 37 39 40 43 45 46 44 41 39 39 40 43 45 48 49 49 51 53 55 58 60 62 64 65 64 63 62 61 62 61 61 61 60 58 57 56 56 56
41 41 41 40 39 39 39 39 39 39 39 39 40 41 38 36 36 36 37 38 37 35 32 32 33 35 34 33 33 34 35 35 34 35 35 36 35 35 34 34 34 34 32 32 32 33 34 35 37 39 41 42 45 46 45 42 40 39 41 43 45 47 49 50 52 55 57 59 60 62 63 65 64 62 62 62 62 62 61 61 60 58 57 56 56 56 56
42 42 42 42 41 41 41 41 41 41 42 41 41 41 40 38 38 39 41 41 41 39 36 33 33 36 37 37 37 36 36 36 36 35 36 36 36 36 36 36 36 35 34 34 35 36 37 38 40 42 43 45 46 45 44 42 41 42 44 45 47 50 52 54 57 59 60 60 61 63 65 64 62 61 62 62 62 62 61 59 58 57 56 56 56 55 54
44 44 44 44 44 44 44 44 44 44 44 43 43 43 42 41 41 41 42 42 42 41 39 36 35 37 40 40 39 37 36 36 36 36 36 36 36 37 37 37 37 36 36 37 39 40 41 42 43 45 46 47 47 45 44 44 44 45 48 51 53 55 57 58 59 60 59 60 62 64 63 61 61 62 63 62 61 60 58 57 57 57 56 55 54 53 54
46 46 46 46 46 46 46 46 47 47 47 46 46 45 45 45 44 43 42 41 40 40 40 40 39 39 41 41 40 38 38 37 36 37 37 37 37 38 39 39 39 38 39 41 43 44 45 46 47 48 49 49 49 48 48 49 50 52 55 57 59 59 59 60 59 58 59 61 63 63 61 60 61 62 62 61 59 57 56 57 57 55 53 52 52 53 54
47 47 47 48 48 48 48 48 48 48 48 47 46 45 45 45 45 45 43 42 40 40 40 40 40 41 42 42 41 39 38 38 38 39 39 38 38 39 40 41 41 42 43 45 45 46 47 49 50 52 52 52 52 53 54 55 56 57 59 60 60 59 59 58 58 58 60 62 62 60 60 61 62 60 58 56 55 55 55 55 53 51 51 52 52 53 54
48 47 47 48 48 49 50 50 51 50 50 49 48 47 46 45 45 45 44 44 43 42 41 42 43 44 43 43 42 41 41 42 41 41 40 40 41 42 43 43 43 44 46 47 47 49 51 52 53 53 53 55 57 58 59 59 58 59 59 58 57 57 57 57 58 59 60 60 59 60 61 61 59 56 54 54 54 54 53 51 49 49 51 52 53 53 54
52 51 50 49 49 49 50 51 50 50 49 49 49 49 48 48 47 47 46 46 46 45 45 44 44 44 43 43 43 43 43 43 44 44 44 45 45 46 44 43 44 46 49 50 51 53 54 54 54 55 56 59 61 62 62 61 59 58 56 55 55 56 57 59 60 60 59 58 59 60 59 57 54 53 54 53 52 51 49 48 49 50 51 52 53 54 55
57 56 55 53 52 52 52 52 51 50 49 49 49 49 49 49 49 48 47 47 47 47 47 47 46 45 46 47 47 46 45 46 46 46 46 45 46 47 47 48 49 51 52 53 54 55 56 57 58 59 61 63 63 63 61 58 54 51 51 54 56 59 60 60 59 58 58 58 59 58 56 53 53 52 52 50 49 48 47 47 48 50 51 52 54 55 56
60 59 59 58 58 58 58 58 56 55 55 54 54 53 52 52 52 51 51 49 47 45 45 46 47 47 47 47 47 47 46 47 48 49 49 49 50 51 52 53 53 54 54 55 56 57 59 60 62 63 63 62 60 57 52 48 46 49 53 56 58 59 58 57 56 56 57 57 56 55 53 52 51 50 50 49 48 47 46 47 48 50 51 52 54 55 56
61 61 61 61 61 62 62 62 61 61 61 60 59 59 58 58 57 57 56 56 55 51 50 50 52 52 51 51 50 50 51 52 54 55 54 54 54 54 54 54 55 56 59 59 59 60 62 63 63 61 57 51 46 43 42 44 49 54 57 57 56 55 54 54 53 54 54 54 53 52 50 50 49 49 48 48 46 46 47 48 49 50 51 52 54 55 55
60 61 61 62 63 63 64 64 64 64 64 63 63 63 63 62 62 61 60 60 60 59 58 59 59 58 57 55 54 54 55 56 57 58 57 57 57 57 57 58 59 60 61 60 59 59 60 59 55 49 42 38 37 40 46 51 55 56 55 55 54 53 52 52 51 51 51 51 51 50 49 48 48 48 46 46 46 47 48 49 50 51 52 53 53 53 53
61 61 61 62 63 63 64 64 65 65 65 65 65 66 65 64 64 64 64 63 63 62 62 62 62 61 60 59 58 58 59 59 60 61 61 60 59 58 58 58 58 58 56 54 53 52 50 48 44 40 37 39 43 49 54 55 53 52 53 53 53 51 51 51 50 50 50 50 50 49 48 47 47 45 45 45 47 48 49 49 50 51 52 52 52 51 50
58 60 62 63 63 63 64 65 65 65 65 65 66 66 66 66 65 65 65 65 65 65 65 65 65 65 65 65 64 63 62 61 62 63 62 60 58 58 58 58 56 54 51 48 47 47 47 47 44 41 42 46 51 55 54 51 48 49 50 51 51 50 50 49 49 50 50 49 48 47 46 45 44 44 45 47 48 48 49 50 51 51 51 51 50 49 49
45 50 54 57 59 60 62 63 64 65 65 65 65 65 65 65 65 65 65 65 65 66 66 66 67 67 67 66 64 63 61 61 61 61 61 61 60 60 58 55 51 47 46 47 49 50 49 47 44 44 48 52 55 55 51 48 47 48 49 50 49 49 48 48 49 49 49 47 46 45 44 44 44 46 47 47 48 48 49 49 50 50 50 49 48 48 47
36 37 39 42 45 48 51 55 58 60 62 63 64 65 66 67 67 67 67 67 67 67 67 68 68 69 69 68 68 66 65 65 64 64 62 59 56 52 50 49 47 45 45 48 50 50 48 46 47 50 53 53 52 50 49 47 47 48 48 48 48 48 49 49 49 48 46 44 43 43 44 45 47 47 47 47 48 48 48 48 48 48 47 47 47 47 47
33 32 32 33 34 37 40 43 47 50 54 57 59 60 63 65 66 67 67 66 66 66 67 67 67 67 67 67 67 66 64 63 61 60 57 54 51 49 48 48 46 45 46 48 49 50 50 52 53 53 51 48 47 46 45 46 46 46 46 47 48 49 48 47 46 45 44 43 44 45 47 47 47 47 47 47 47 47 47 46 46 46 46 46 46 47 47
33 32 32 32 33 34 36 38 39 41 44 46 48 49 50 51 53 54 54 54 53 53 53 53 52 52 52 52 52 53 52 51 49 47 46 44 43 43 44 44 43 44 47 49 50 51 52 51 49 47 45 45 45 45 45 46 47 47 48 49 48 46 44 43 43 44 45 45 46 46 46 46 46 46 46 46 46 45 45 44 44 44 44 45 46 47 47
34 33 34 34 34 35 35 36 36 37 38 38 39 40 40 39 40 40 41 41 40 39 38 38 37 37 37 38 39 40 40 40 39 39 38 37 36 36 38 39 41 44 48 51 50 48 46 44 44 46 48 50 50 49 49 50 51 51 51 49 45 43 43 44 45 46 46 45 45 45 45 45 45 45 45 45 44 43 43 43 43 43 44 44 45 46 46
34 35 36 36 35 35 35 35 35 36 36 36 37 38 38 38 38 37 37 37 36 35 35 34 34 34 34 34 35 35 35 35 35 34 34 34 34 34 37 39 41 43 47 49 48 46 45 47 49 52 54 54 54 54 55 55 55 54 51 48 45 45 46 47 47 46 44 44 43 44 44 44 44 44 43 43 42 41 41 42 42 43 44 44 44 45 45
35 35 36 36 36 35 35 35 36 36 36 36 36 37 37 38 38 38 38 37 36 36 35 35 34 35 35 35 34 34 35 35 34 34 35 35 35 35 37 40 43 45 48 50 50 51 53 56 57 57 56 55 56 57 57 56 54 52 50 48 48 47 47 45 44 43 43 43 43 43 43 43 42 42 41 41 40 40 40 41 42 43 43 43 43 44 45
33 34 34 34 35 35 34 34 34 35 35 35 35 36 36 37 37 37 37 37 37 37 36 36 35 35 35 35 35 35 36 36 36 36 36 36 37 37 37 40 43 47 49 51 53 54 56 56 57 56 55 55 55 55 54 52 50 48 47 47 45 44 42 42 42 42 43 42 42 41 41 41 41 40 40 39 39 39 40 41 42 42 42 42 43 44 46
29 31 32 32 33 33 33 33 33 34 34 34 34 35 36 36 36 36 37 37 37 36 36 36 36 36 36 36 36 36 36 36 37 37 37 38 38 38 39 41 43 45 47 48 49 50 51 52 52 52 51 52 51 50 48 46 45 44 43 41 40 40 40 41 42 41 41 40 40 40 40 40 39 39 38 39 39 39 40 40 41 41 41 42 43 44 45
27 27 28 30 31 32 32 32 33 34 34 35 35 36 36 36 36 36 36 36 36 36 36 36 36 37 37 37 37 37 37 36 36 37 37 38 38 38 39 40 41 42 43 44 45 45 46 46 47 47 47 46 44 43 41 41 41 40 39 38 39 39 40 40 39 38 38 37 38 38 38 38 37 38 38 38 38 39 39 39 39 40 41 41 42 44 45
27 24 24 26 30 32 32 31 32 33 33 34 34 35 35 35 36 36 36 36 36 36 36 36 37 37 37 37 36 36 36 36 36 36 36 36 37 37 37 37 38 39 40 41 40 40 40 41 41 41 40 39 38 38 38 38 38 38 38 38 38 38 38 37 36 36 36 36 37 36 36 36 37 37 37 37 38 38 38 38 38 39 40 41 42 43 45
31 28 26 27 29 32 32 31 31 32 32 32 32 32 32 33 33 34 35 35 35 35 36 36 36 36 36 36 36 36 36 36 36 36 36 36 36 36 36 36 37 37 38 37 37 37 37 37 37 36 36 36 36 36 37 38 38 38 38 37 37 36 35 34 34 34 35 35 35 35 35 35 36 36 36 36 36 36 36 37 37 38 39 40 42 43 45
34 33 31 29 29 30 30 29 29 29 30 31 30 30 31 31 31 31 32 32 32 32 33 33 34 34 35 35 35 35 35 35 35 35 36 35 35 35 35 35 36 36 36 36 36 35 35 35 35 35 35 36 36 37 37 38 38 37 36 35 35 34 33 32 33 34 34 34 33 33 34 34 34 34 35 35 35 35 35 36 37 38 40 41 42 44 46
36 35 33 30 27 26 27 28 29 32 34 33 31 30 31 31 32 33 33 33 32 32 32 32 32 32 32 33 33 33 34 34 34 35 34 34 33 33 32 32 33 33 33 32 32 32 33 33 33 34 34 35 35 36 36 36 35 34 33 32 32 31 31 31 32 33 32 32 32 32 32 32 32 33 33 33 34 34 35 36 37 39 40 42 43 45 47
36 35 33 31 29 27 26 27 29 31 34 34 32 31 30 31 31 32 32 32 32 32 31 31 31 31 31 31 30 30 31 30 30 29 28 28 28 28 29 29 29 29 30 30 31 31 32 32 31 31 32 32 33 33 34 33 32 31 31 31 31 30 30 31 31 32 32 32 32 31 31 31 32 33 33 33 34 35 36 37 38 40 42 43 45 47 49
35 34 32 31 30 30 28 27 26 26 28 29 30 30 29 29 29 29 29 30 30 30 30 29 28 27 28 28 26 24 24 23 23 23 24 24 25 26 27 27 29 30 31 32 33 32 31 29 29 28 29 30 31 32 32 31 31 30 30 30 30 29 29 30 31 31 31 31 31 30 30 31 33 34 34 35 35 36 37 38 40 42 43 45 47 49 51
33 33 31 30 30 31 31 29 27 27 28 28 28 29 29 29 29 28 28 28 27 26 25 25 25 25 27 28 27 25 24 24 25 26 26 26 26 27 28 29 31 32 32 32 31 30 28 28 28 29 30 31 31 31 30 30 30 29 30 30 29 29 29 30 31 31 32 32 31 30 30 32 34 36 37 37 38 38 39 39 41 43 45 47 50 52 54
31 30 29 28 28 30 32 32 30 28 26 25 25 25 26 27 26 25 25 25 24 22 22 24 26 28 29 29 27 26 27 28 29 29 28 28 29 29 30 30 31 31 31 31 30 30 29 30 31 32 33 32 31 30 30 30 29 29 29 29 29 28 29 30 31 32 33 33 33 32 33 35 38 40 40 40 40 39 39 40 43 45 48 50 53 54 56
29 27 26 27 28 28 30 31 30 29 27 25 24 25 25 25 24 23 23 23 23 23 25 27 28 28 28 28 28 27 28 28 27 27 28 28 28 28 28 28 28 29 30 31 31 31 32 33 33 34 34 33 32 32 31 31 31 31 30 30 30 29 29 30 32 33 34 35 35 35 36 38 41 42 43 42 41 40 40 41 44 48 51 53 55 57 57
25 23 25 29 30 29 29 29 28 26 24 23 23 23 23 23 24 23 23 22 23 25 26 27 27 27 27 27 27 26 26 25 25 26 26 27 28 29 31 31 31 31 33 33 34 35 36 35 33 32 32 32 32 32 33 33 33 33 32 31 31 32 32 33 33 34 35 36 36 37 38 40 43 44 43 43 42 41 41 43 46 50 53 56 58 59 59
24 23 24 28 30 31 30 28 24 21 19 19 19 20 21 22 22 23 24 25 26 27 28 27 27 26 26 25 25 25 26 28 29 30 31 32 33 35 36 36 36 36 37 36 36 36 35 32 31 31 32 32 33 34 35 35 34 34 33 33 33 34 35 35 35 35 35 36 37 37 40 43 44 44 43 43 42 42 42 44 48 52 55 58 60 60 60
Wind_Direction
225 231 238 242 242 246 251 253 248 237 234 242 247 246 242 243 249 255 261 268 271 271 269 267 264 264 268 274 282 293 302 305 303 302 306 309 310 314 323 334 337 335 338 341 334 328 328 330 328 324 325 328 332 335 334 328 325 327 327 323 322 324 321 313 313 319 325 330 332 333 335 336 336 337 338 337 337 336 333 329 325 322 318 318 323 328 330
228 235 240 248 254 254 250 251 254 251 243 242 248 253 250 245 250 261 269 274 277 276 276 278 280 282 281 283 289 297 299 300 300 303 308 311 311 313 317 326 332 330 332 341 340 326 321 327 332 333 336 338 338 338 332 327 325 323 320 316 315 314 308 302 302 305 310 316 322 328 334 338 340 340 339 337 336 336 335 332 326 320 316 316 320 325 328
232 237 241 247 252 251 245 243 250 255 252 247 245 249 254 256 259 265 271 275 276 275 276 280 284 289 290 289 293 298 298 300 304 307 311 313 314 314 312 314 316 315 315 316 312 306 307 315 320 322 325 325 323 322 321 321 320 316 315 316 315 312 306 299 295 293 295 302 311 321 329 336 340 340 338 336 334 333 333 331 324 317 314 314 318 324 326
237 237 239 241 244 245 242 240 244 251 254 253 249 246 250 257 262 267 272 273 272 270 272 276 282 288 290 290 294 298 300 304 309 311 311 312 314 312 309 309 309 306 303 299 299 300 306 314 318 317 316 316 316 316 316 316 316 315 316 318 318 317 313 306 298 292 290 294 303 315 324 331 336 337 335 333 331 329 329 328 323 315 311 311 314 318 321
240 240 239 239 242 246 247 247 247 250 252 252 254 253 252 252 255 261 267 268 268 270 275 276 277 281 282 284 290 296 300 303 306 308 308 308 310 305 298 296 295 294 294 295 299 302 306 313 318 319 319 319 320 319 316 316 317 316 316 317 318 317 314 310 303 296 293 295 303 312 319 323 328 331 331 329 328 327 327 325 321 314 309 308 310 313 315
239 242 243 244 248 253 257 256 254 254 252 248 249 251 252 253 256 258 261 262 263 268 272 271 271 273 276 278 281 287 292 295 299 302 301 300 299 290 281 280 280 281 283 286 288 289 292 299 306 311 312 312 311 311 309 310 311 311 312 313 314 314 314 313 309 306 303 303 305 309 313 318 323 326 326 325 325 326 325 323 319 313 308 307 309 311 312
243 245 247 249 253 255 257 256 253 251 249 247 248 248 249 251 254 256 259 261 263 263 264 266 270 273 276 279 281 283 283 283 287 291 291 291 291 283 277 280 281 280 281 282 281 280 281 286 293 298 299 298 297 298 299 301 303 305 307 309 312 314 315 314 311 309 307 304 304 305 309 315 321 323 323 323 324 323 322 321 318 313 308 307 308 310 311
248 252 255 256 256 255 255 255 253 250 249 249 249 249 250 250 250 251 256 263 267 268 269 273 279 281 282 283 281 274 272 274 279 283 284 287 288 285 283 286 287 285 284 284 283 282 282 285 289 292 292 291 291 292 293 295 297 300 303 305 309 312 312 309 305 302 301 302 302 303 307 314 319 320 321 322 321 321 319 318 316 313 309 307 307 308 310
251 254 257 257 255 254 255 255 254 252 252 253 251 252 254 255 257 260 261 264 270 276 282 285 286 285 285 283 278 269 268 273 279 281 282 286 289 288 288 292 295 294 291 289 288 288 287 288 290 291 291 291 291 291 292 294 295 297 299 302 306 309 308 303 298 296 299 300 300 301 306 313 317 318 319 320 319 318 317 316 315 312 309 307 307 308 310
251 252 254 254 254 255 257 259 257 253 253 255 255 256 259 262 266 269 268 267 270 277 284 286 287 287 289 290 289 285 280 279 280 281 284 289 291 289 290 294 298 299 297 294 294 294 293 293 293 293 293 293 293 294 294 295 295 296 298 301 304 307 306 301 297 298 301 301 301 301 305 310 313 315 318 318 317 317 316 315 314 312 310 309 309 310 311
250 248 250 251 253 256 259 261 261 259 258 258 257 255 258 262 266 268 269 270 269 270 273 278 283 287 290 292 292 289 286 281 279 280 283 287 289 289 289 292 296 298 298 296 295 295 295 295 295 295 296 296 297 297 297 297 297 297 299 301 304 306 305 300 297 299 301 301 300 300 302 306 311 314 317 317 316 316 316 314 313 312 312 312 311 312 312
251 252 251 251 252 254 256 259 261 263 264 264 262 260 261 262 264 267 269 269 267 267 270 275 279 282 285 287 286 286 286 285 284 284 286 287 288 287 287 289 292 295 297 295 294 293 294 294 295 296 296 297 296 297 297 297 298 299 300 301 303 304 303 299 297 298 299 298 298 299 301 305 311 314 315 316 316 316 315 314 313 312 312 312 312 312 313
252 253 254 253 252 251 252 253 255 258 262 265 266 266 267 269 270 271 270 269 269 271 272 273 274 277 282 284 285 285 286 288 290 291 290 290 289 286 286 287 289 292 294 294 292 291 292 292 293 293 294 294 295 296 297 297 298 298 299 300 301 302 301 299 297 296 296 297 299 300 302 306 310 313 314 315 315 315 314 312 312 312 312 312 312 312 313
250 252 253 254 251 248 248 250 252 255 259 262 264 266 268 272 276 277 275 274 273 274 274 275 276 277 280 282 283 285 288 290 291 289 287 286 286 285 284 284 286 290 293 292 291 290 290 289 290 291 292 293 295 296 296 297 298 298 298 298 299 299 299 298 297 297 297 298 300 301 302 305 309 312 313 314 314 313 312 311 311 312 312 312 312 312 312
248 250 252 253 252 250 250 251 254 258 259 260 262 266 268 271 274 276 275 274 273 272 274 276 277 278 280 283 284 285 286 287 286 285 285 285 285 284 283 283 285 289 291 290 289 289 288 288 289 291 293 294 295 296 297 298 299 298 297 297 297 298 299 300 300 299 298 298 299 300 302 306 309 311 312 313 312 311 310 311 311 311 312 312 312 312 311
246 248 250 252 254 255 256 256 257 261 263 264 266 268 270 272 274 272 270 269 270 270 269 270 272 275 278 281 283 283 283 283 284 286 288 289 289 288 287 287 287 289 289 288 287 287 287 287 289 292 293 293 294 296 298 299 298 296 295 295 296 297 298 298 298 297 297 297 299 301 304 306 308 310 311 311 309 309 309 310 310 311 311 311 311 311 312
246 247 249 251 253 255 258 258 259 261 264 265 266 267 270 274 276 274 270 267 268 269 268 268 269 271 272 274 277 279 280 281 283 286 288 289 290 290 289 289 288 287 286 285 285 286 286 286 287 290 293 294 295 297 299 299 298 296 295 295 297 298 297 296 296 296 297 299 302 303 304 306 307 308 308 307 307 307 308 309 309 309 309 309 310 311 313
246 247 248 250 251 254 256 257 259 260 262 264 264 262 265 270 274 274 274 271 268 268 268 268 269 269 270 273 276 276 276 277 280 282 284 285 287 288 288 287 285 284 283 284 285 285 284 283 286 290 294 296 298 299 300 300 299 298 297 298 299 297 295 295 295 297 299 301 303 304 304 304 306 306 306 305 306 307 308 308 308 308 309 309 310 311 312
246 246 247 249 250 252 254 256 258 259 261 263 263 260 260 265 270 273 274 272 267 264 263 265 267 267 268 273 278 278 277 278 278 279 281 283 283 283 283 283 283 282 282 283 283 283 281 282 285 290 294 298 300 300 298 298 298 297 296 296 296 294 294 295 296 297 299 301 302 302 302 304 304 304 304 305 306 307 307 308 308 308 309 310 310 311 312
246 246 247 248 249 250 252 254 256 257 258 261 263 262 262 267 271 273 274 273 269 266 265 266 267 265 266 272 278 278 278 279 279 279 281 282 280 279 280 281 281 281 281 282 282 281 280 281 285 290 295 298 299 298 296 295 295 294 293 293 293 293 294 295 296 297 299 300 301 301 302 303 303 303 304 305 306 306 307 307 307 308 309 310 310 311 312
247 247 248 248 249 250 251 253 254 256 257 259 262 263 264 267 269 271 272 272 269 268 270 272 271 267 265 269 275 276 276 277 277 276 279 280 280 281 281 281 281 281 282 283 283 281 281 282 285 290 294 296 296 295 293 293 292 291 290 291 292 293 293 294 296 297 298 299 300 301 301 302 302 303 304 305 305 306 306 307 308 308 309 310 311 311 312
247 248 248 249 250 250 251 253 254 256 257 259 261 262 264 266 267 267 269 269 267 267 272 275 273 269 266 269 274 275 275 274 273 273 277 279 280 281 282 282 282 281 282 284 284 283 283 285 287 289 291 293 294 294 292 291 289 288 289 291 292 293 294 295 296 296 297 299 300 300 300 301 302 303 304 304 305 306 306 307 309 309 309 310 311 311 311
249 248 249 250 251 251 252 254 255 256 257 259 261 262 263 265 265 265 266 266 266 267 270 271 270 268 268 270 273 274 273 272 273 275 277 278 277 278 279 279 279 280 281 283 283 283 284 286 287 288 290 292 293 294 293 292 290 289 290 291 292 293 293 294 294 296 297 298 298 298 299 300 302 303 304 305 306 306 307 308 309 309 309 310 310 310 310
251 251 251 251 252 253 253 254 256 257 258 259 261 262 263 264 265 265 265 265 265 265 266 268 268 267 267 270 272 272 271 270 272 275 277 277 277 277 277 277 278 279 280 280 281 283 285 287 287 288 290 292 293 294 294 292 291 290 290 290 291 292 292 292 294 296 297 297 296 297 299 300 302 303 305 305 305 306 307 308 308 308 308 308 308 309 311
252 252 252 252 253 254 255 255 256 257 258 260 261 262 263 263 264 265 265 264 264 264 264 266 266 265 267 270 271 270 270 270 272 275 277 277 276 276 275 276 278 280 281 282 282 284 286 287 288 289 291 293 294 293 292 291 290 290 289 290 291 291 291 293 295 296 296 295 297 298 300 301 302 304 304 305 305 306 307 306 306 306 306 306 307 309 310
253 252 253 253 253 254 254 255 255 256 258 260 261 262 263 263 263 264 264 265 265 264 263 263 263 265 269 272 272 270 269 269 271 273 275 275 275 276 276 277 279 282 284 285 286 287 288 288 289 291 293 294 293 291 290 289 289 289 290 291 291 291 292 294 295 295 295 296 299 300 301 302 303 304 304 305 305 305 304 304 305 305 305 306 308 309 310
253 253 253 253 253 253 254 255 256 257 258 259 260 260 260 260 261 262 264 265 266 265 263 264 265 268 271 272 272 273 273 273 274 275 275 276 277 278 279 280 282 284 286 288 289 290 290 289 290 292 293 292 290 289 288 286 287 289 291 292 292 292 294 294 294 295 297 299 301 302 302 303 303 303 304 304 304 303 303 304 304 305 305 307 308 309 310
254 254 254 254 254 255 255 255 256 256 256 257 257 257 257 259 260 262 263 263 263 263 263 264 266 269 271 271 272 274 275 276 277 279 279 280 280 281 282 284 285 287 288 290 290 290 290 290 291 292 290 288 286 285 285 288 292 294 294 293 293 293 294 295 296 299 300 301 302 302 302 302 302 302 303 303 303 303 304 305 305 305 306 307 308 310 310
254 255 255 255 256 256 256 257 257 257 257 257 257 257 257 258 259 261 262 262 262 263 264 266 268 270 271 271 271 272 274 275 276 277 279 281 282 283 284 285 286 288 289 289 289 289 289 289 288 286 282 278 277 282 290 295 296 295 292 292 293 295 296 298 300 301 302 302 301 301 301 301 302 303 303 303 304 305 306 306 306 306 306 308 309 309 309
253 254 255 256 256 257 257 257 258 258 259 259 260 260 260 260 261 261 262 263 264 265 266 267 268 269 269 269 270 270 271 273 274 276 278 280 282 283 284 286 288 289 289 289 290 289 286 283 279 273 268 268 274 285 293 295 292 288 288 291 294 296 298 300 301 302 301 301 300 300 301 302 303 303 303 304 305 306 306 305 305 306 307 308 308 308 307
253 254 254 255 256 258 259 259 259 260 261 261 262 262 263 263 264 264 264 264 265 266 267 268 268 269 270 270 271 272 273 274 275 276 278 279 280 281 282 284 286 287 285 284 282 279 275 272 269 264 263 269 279 288 291 288 284 284 288 292 295 298 300 301 301 301 301 300 300 301 302 302 303 303 304 305 305 305 305 305 306 307 307 308 307 307 307
254 254 255 256 256 257 259 260 261 262 262 263 264 265 265 265 265 265 265 265 265 266 267 267 268 269 270 271 272 273 274 275 275 277 278 279 280 282 283 282 281 281 280 280 277 272 267 264 263 266 271 278 283 284 282 280 282 288 292 295 297 299 300 300 301 300 300 300 301 301 301 301 303 304 304 304 304 304 305 306 306 307 307 307 307 307 307
255 255 256 256 257 257 257 258 260 261 262 262 263 264 265 266 266 267 267 267 268 268 269 269 270 271 272 273 273 274 275 276 277 278 278 278 278 278 277 275 273 272 273 275 274 270 265 263 268 274 278 279 279 278 278 282 288 293 295 297 298 299 299 300 300 300 300 301 300 300 301 302 303 303 303 303 304 305 305 305 306 306 306 306 307 308 309
255 255 254 255 255 256 256 256 256 257 259 260 261 262 263 265 266 268 269 270 271 272 272 273 274 274 275 276 276 277 277 278 278 277 277 275 272 269 268 268 268 266 265 265 266 266 266 269 273 274 275 276 279 282 286 290 293 295 296 297 298 299 300 301 301 301 300 300 299 300 301 302 302 302 302 303 304 304 305 305 305 306 307 307 308 309 310
255 254 253 253 253 253 255 256 257 259 260 261 262 263 264 265 266 267 269 270 271 272 273 273 274 275 275 276 276 276 276 276 275 274 273 271 268 265 264 263 261 258 256 257 260 262 265 267 269 271 275 281 286 289 291 292 294 296 298 300 300 301 300 300 300 300 299 298 299 300 301 301 301 301 302 303 304 304 305 305 305 306 308 309 309 310 311
256 255 254 253 253 253 255 256 258 259 261 262 263 264 265 265 266 266 267 269 269 271 271 271 271 271 270 270 271 271 272 272 272 272 271 268 264 260 256 254 254 254 253 253 254 256 258 262 267 274 280 284 286 288 290 293 295 298 300 301 300 300 300 300 300 299 298 298 299 300 300 300 301 301 302 303 304 305 305 306 306 308 309 310 310 311 311
256 256 255 255 254 255 255 256 256 256 258 259 261 263 264 265 265 266 267 268 268 268 268 267 266 265 265 264 264 265 265 266 266 267 266 265 261 257 252 249 249 250 250 249 250 255 260 266 272 277 280 282 284 287 289 292 295 297 298 298 298 299 299 299 298 297 297 298 299 299 299 300 301 302 303 304 304 305 305 307 308 309 310 310 311 311 311
261 259 259 258 258 257 256 256 256 256 256 257 258 259 261 262 263 263 264 265 265 265 265 265 264 264 263 263 262 261 261 262 261 261 261 260 258 257 254 250 248 248 248 250 255 261 267 271 275 277 280 283 285 286 288 290 292 294 294 295 296 297 297 296 295 296 296 297 298 299 300 301 302 303 303 304 304 305 307 308 309 310 311 311 311 312 312
268 267 266 264 262 261 260 259 259 259 258 257 258 259 260 261 261 262 262 263 263 264 264 264 263 262 262 262 262 261 262 262 261 261 261 260 259 258 256 254 253 252 253 255 259 263 267 271 274 277 279 282 284 285 287 289 290 291 292 293 294 294 293 293 294 295 296 297 298 299 300 301 302 303 303 304 305 306 308 309 310 311 311 312 312 312 313
268 271 272 271 268 264 262 261 261 261 261 260 259 260 261 262 262 261 261 261 262 262 263 263 263 263 262 261 261 261 262 263 263 263 263 263 262 261 260 259 259 260 261 262 264 265 268 271 274 277 279 281 283 286 288 289 289 290 291 291 291 290 291 292 293 294 296 298 299 300 301 302 303 303 304 305 307 308 310 311 311 311 312 312 313 313 314
258 264 271 275 274 270 266 264 262 262 262 262 262 261 262 262 262 262 262 263 264 264 265 265 265 265 264 263 262 263 263 263 263 264 265 265 266 266 266 266 266 266 268 269 270 271 272 273 275 277 279 281 283 286 287 287 287 288 288 289 289 289 290 291 293 295 298 299 300 301 302 303 304 304 305 307 309 310 311 311 312 312 313 313 314 315 317
247 251 258 266 270 270 270 269 268 267 266 265 264 263 262 262 263 264 264 265 265 266 267 268 268 267 267 267 267 267 267 266 266 266 266 267 268 269 270 270 270 270 271 272 274 275 275 276 277 278 280 282 284 284 284 284 286 287 288 289 289 289 290 292 294 297 299 300 301 302 304 304 305 306 308 309 310 311 312 312 313 314 314 315 316 317 319
241 242 245 252 258 263 266 270 272 272 269 266 263 263 264 265 265 265 265 266 266 266 267 268 269 269 270 270 270 270 270 270 270 269 269 270 270 271 271 272 273 273 274 276 277 277 278 278 279 281 282 282 283 283 284 285 287 288 289 288 288 289 291 294 297 299 300 302 303 305 306 307 307 309 310 311 311 312 313 314 315 315 316 317 318 319 320
240 240 242 247 254 259 263 266 268 269 268 266 265 265 265 265 265 267 268 269 270 270 270 271 272 272 272 272 271 271 271 271 271 272 272 273 273 273 273 274 274 276 277 278 278 279 279 280 281 282 282 283 283 284 285 285 286 287 287 287 288 290 293 296 299 301 302 304 306 308 308 309 310 310 311 312 314 315 315 316 317 318 319 320 320 321 322
237 237 239 244 249 253 257 262 264 265 266 267 267 267 266 266 267 268 269 270 272 274 275 275 276 275 275 275 274 273 272 272 272 272 272 273 273 274 274 275 277 277 277 278 280 281 283 284 285 285 285 285 285 285 285 286 286 287 288 288 289 292 295 298 300 302 304 306 309 310 311 311 312 313 314 316 317 317 318 319 320 322 322 322 323 324 325
235 235 237 241 244 247 252 257 261 264 267 268 267 267 268 269 269 269 269 271 273 276 277 277 277 277 276 275 273 272 272 272 271 271 272 273 274 275 276 277 278 278 279 281 285 287 288 288 287 286 286 287 287 287 288 288 287 287 288 288 290 293 297 299 301 303 306 309 312 313 314 314 315 316 318 320 320 320 321 322 323 324 325 325 326 326 327
236 237 239 242 244 247 251 252 251 252 257 262 264 266 267 268 269 271 273 275 275 276 276 276 276 275 273 270 267 266 268 270 271 272 275 276 276 277 278 279 280 282 285 287 289 290 289 288 287 287 289 291 291 290 289 288 288 288 288 289 292 295 299 300 302 304 307 311 314 316 318 319 321 321 322 322 322 323 323 324 325 326 327 327 328 328 329
239 241 245 247 248 249 250 248 245 246 253 258 262 264 265 266 267 270 272 272 271 273 274 270 265 263 264 265 264 261 262 266 270 274 276 276 277 278 280 282 283 285 287 288 288 287 286 285 286 290 294 295 294 291 289 289 290 290 290 292 295 298 301 302 303 306 308 311 313 315 318 322 326 327 326 325 325 325 325 326 327 328 329 329 330 331 331
246 246 246 247 248 250 249 247 247 252 257 260 260 261 264 266 267 268 267 264 261 261 263 262 261 261 263 265 264 263 264 268 271 274 275 275 276 278 279 281 283 284 284 284 284 285 285 287 289 293 296 296 294 292 293 294 294 294 294 295 298 301 303 303 305 307 309 310 311 311 314 319 324 327 327 327 326 325 325 327 329 330 331 332 332 333 332
249 251 252 251 252 252 251 251 255 259 261 260 259 260 262 264 265 264 263 260 256 254 255 259 262 264 264 264 265 267 269 271 272 274 276 277 277 277 279 281 284 284 282 282 283 284 285 287 290 291 292 291 290 289 291 293 293 293 295 298 300 302 302 303 304 306 308 309 309 309 311 316 320 323 325 326 325 323 323 326 329 332 333 334 334 333 332
245 251 257 258 257 256 256 258 262 263 260 258 259 262 263 264 263 260 256 254 253 254 257 260 263 265 266 267 269 270 271 271 272 275 278 278 278 278 279 281 281 280 278 279 281 283 285 287 288 287 287 288 288 288 289 289 289 290 294 297 299 300 300 301 302 305 307 308 308 309 311 314 317 320 322 323 322 320 320 324 328 332 334 335 334 333 332
238 242 250 254 256 257 257 258 259 258 255 256 260 264 266 266 265 262 258 256 256 256 258 261 263 264 265 266 267 269 272 274 276 278 278 278 278 278 279 279 278 277 276 278 280 282 282 282 281 280 281 282 284 285 286 286 285 287 290 295 297 298 299 299 300 303 306 307 307 308 310 313 315 317 319 320 319 317 318 323 327 331 333 334 333 332 331
Height
5810 5811 5811 5812 5813 5813 5813 5813 5813 5814 5814 5814 5814 5814 5815 5815 5814 5814 5815 5815 5816 5816 5816 5816 5816 5816 5816 5815 5815 5815 5816 5816 5815 5815 5814 5814 5813 5813 5812 5812 5811 5810 5809 5809 5808 5807 5806 5807 5807 5806 5805 5804 5803 5803 5802 5801 5800 5799 5799 5798 5797 5796 5795 5793 5793 5791 5790 5789 5789 5788 5786 5785 5783 5782 5780 5778 5776 5773 5771 5768 5766 5765 5763 5761 5759 5758 5756
5808 5809 5810 5811 5811 5812 5812 5812 5812 5812 5813 5813 5813 5813 5813 5814 5813 5813 5813 5813 5813 5813 5813 5813 5814 5814 5814 5813 5813 5814 5814 5814 5814 5814 5813 5813 5812 5811 5811 5810 5810 5809 5808 5809 5809 5808 5807 5807 5807 5806 5805 5804 5803 5802 5802 5800 5799 5798 5798 5797 5796 5795 5793 5792 5791 5790 5788 5788 5787 5785 5784 5782 5780 5778 5776 5774 5771 5769 5766 5765 5763 5761 5758 5756 5755 5754 5752
5807 5808 5808 5809 5809 5809 5810 5810 5810 5810 5811 5811 5811 5811 5811 5812 5812 5811 5811 5811 5811 5811 5810 5811 5811 5812 5812 5812 5812 5812 5812 5813 5813 5812 5812 5811 5811 5809 5809 5808 5808 5808 5808 5808 5809 5808 5808 5807 5806 5805 5804 5803 5803 5802 5801 5800 5799 5798 5796 5795 5794 5793 5792 5790 5789 5788 5786 5785 5784 5782 5779 5777 5775 5773 5771 5770 5768 5766 5764 5762 5760 5757 5754 5752 5751 5749 5747
5805 5805 5806 5806 5806 5806 5807 5808 5809 5809 5809 5809 5810 5810 5810 5810 5810 5809 5809 5810 5809 5809 5809 5809 5809 5810 5810 5810 5810 5810 5810 5810 5810 5810 5810 5810 5809 5808 5807 5806 5805 5806 5806 5806 5806 5805 5805 5803 5802 5802 5801 5801 5800 5799 5798 5797 5797 5795 5794 5792 5791 5790 5789 5788 5786 5785 5783 5782 5781 5778 5775 5772 5771 5769 5768 5767 5766 5764 5761 5759 5757 5754 5751 5749 5747 5745 5743
5803 5803 5803 5803 5802 5803 5804 5806 5807 5807 5807 5807 5808 5808 5808 5808 5808 5808 5807 5807 5807 5807 5808 5808 5808 5808 5808 5808 5808 5808 5807 5807 5808 5808 5808 5808 5808 5807 5805 5804 5804 5803 5803 5802 5802 5801 5800 5799 5797 5797 5796 5795 5794 5793 5792 5792 5792 5791 5790 5789 5788 5787 5785 5784 5783 5781 5780 5778 5776 5774 5771 5769 5768 5767 5766 5764 5763 5761 5758 5755 5753 5750 5748 5746 5744 5741 5739
5800 5800 5800 5800 5800 5801 5803 5804 5804 5804 5805 5805 5805 5805 5806 5806 5806 5806 5805 5805 5805 5805 5806 5806 5807 5807 5807 5807 5807 5806 5806 5805 5805 5806 5806 5806 5806 5806 5804 5804 5803 5802 5801 5800 5800 5799 5798 5797 5795 5795 5794 5792 5792 5791 5790 5789 5788 5788 5786 5785 5784 5783 5781 5779 5778 5776 5774 5773 5772 5770 5768 5767 5765 5764 5762 5761 5759 5757 5754 5751 5748 5746 5744 5742 5740 5737 5735
5797 5797 5797 5797 5798 5799 5800 5801 5802 5802 5802 5802 5803 5803 5803 5803 5803 5803 5803 5802 5802 5803 5804 5804 5805 5805 5805 5806 5806 5806 5805 5804 5803 5804 5804 5803 5804 5803 5803 5802 5802 5801 5800 5799 5798 5798 5797 5796 5795 5794 5794 5792 5791 5790 5789 5787 5786 5785 5784 5782 5781 5779 5777 5775 5773 5771 5770 5769 5768 5767 5765 5764 5762 5760 5758 5756 5754 5752 5749 5746 5744 5742 5740 5738 5736 5733 5730
5794 5794 5794 5794 5795 5796 5796 5798 5799 5799 5800 5800 5800 5801 5801 5801 5801 5801 5801 5800 5800 5801 5802 5802 5803 5803 5803 5804 5804 5804 5803 5802 5802 5802 5801 5801 5801 5801 5800 5800 5800 5799 5798 5797 5796 5796 5795 5794 5794 5793 5792 5791 5789 5788 5787 5785 5784 5782 5781 5780 5778 5777 5775 5773 5771 5769 5768 5767 5765 5764 5762 5760 5758 5756 5754 5752 5750 5747 5745 5742 5739 5737 5735 5733 5731 5727 5724
5791 5792 5791 5791 5792 5792 5793 5795 5796 5797 5797 5797 5798 5798 5798 5797 5798 5799 5800 5799 5798 5798 5799 5800 5800 5801 5801 5801 5802 5802 5801 5800 5799 5799 5799 5799 5798 5798 5797 5797 5796 5796 5795 5794 5794 5793 5793 5792 5791 5790 5788 5787 5786 5785 5784 5782 5781 5780 5778 5777 5776 5775 5773 5771 5769 5768 5766 5764 5762 5760 5758 5756 5754 5752 5750 5748 5745 5743 5740 5737 5734 5732 5729 5727 5724 5721 5718
5788 5788 5788 5788 5788 5789 5790 5792 5793 5793 5794 5794 5795 5795 5794 5794 5795 5796 5797 5797 5797 5797 5797 5796 5797 5797 5797 5798 5798 5798 5798 5797 5797 5797 5797 5796 5796 5795 5794 5794 5793 5792 5791 5790 5790 5789 5789 5788 5787 5786 5785 5783 5782 5781 5780 5779 5778 5777 5776 5775 5773 5772 5770 5768 5766 5764 5762 5760 5758 5756 5754 5752 5750 5748 5745 5743 5740 5737 5733 5730 5728 5725 5722 5720 5718 5715 5711
5784 5785 5785 5785 5786 5786 5788 5789 5788 5789 5790 5791 5792 5792 5791 5792 5793 5793 5793 5794 5794 5795 5795 5794 5794 5794 5793 5794 5794 5794 5795 5794 5794 5794 5794 5794 5793 5792 5791 5791 5790 5789 5788 5787 5786 5786 5785 5784 5783 5782 5780 5779 5778 5777 5776 5775 5774 5774 5773 5771 5770 5768 5765 5763 5761 5760 5759 5756 5754 5751 5750 5747 5745 5742 5740 5737 5733 5731 5727 5723 5720 5718 5715 5712 5711 5708 5704
5780 5781 5781 5782 5783 5784 5785 5785 5785 5785 5786 5787 5788 5788 5788 5790 5791 5790 5790 5791 5791 5792 5792 5792 5792 5791 5791 5790 5790 5791 5791 5791 5791 5792 5792 5791 5791 5790 5789 5788 5787 5786 5785 5784 5784 5783 5781 5780 5779 5778 5777 5776 5775 5774 5773 5772 5771 5770 5768 5767 5765 5763 5761 5759 5757 5756 5754 5751 5749 5747 5745 5742 5739 5736 5734 5730 5727 5724 5721 5717 5713 5711 5707 5705 5703 5701 5697
5776 5777 5777 5778 5780 5780 5781 5782 5782 5782 5782 5782 5783 5784 5785 5786 5787 5787 5787 5787 5788 5789 5789 5789 5789 5788 5788 5787 5787 5787 5787 5787 5788 5788 5789 5788 5788 5787 5786 5785 5784 5783 5782 5782 5781 5780 5779 5777 5776 5775 5774 5773 5772 5771 5770 5769 5767 5766 5764 5762 5760 5758 5756 5755 5753 5751 5749 5746 5744 5741 5739 5736 5733 5730 5727 5723 5720 5718 5714 5711 5707 5704 5701 5698 5696 5694 5691
5772 5772 5773 5774 5775 5776 5776 5777 5778 5778 5779 5779 5779 5780 5781 5782 5783 5783 5783 5783 5784 5784 5785 5785 5785 5784 5784 5784 5784 5784 5784 5784 5784 5784 5785 5785 5785 5784 5783 5783 5782 5781 5780 5779 5778 5777 5776 5775 5773 5772 5771 5770 5769 5768 5766 5765 5764 5762 5759 5757 5755 5753 5751 5750 5748 5746 5743 5741 5738 5735 5733 5730 5727 5724 5720 5717 5713 5711 5708 5705 5701 5698 5695 5691 5688 5686 5684
5768 5768 5769 5770 5770 5771 5773 5774 5774 5774 5775 5775 5775 5776 5778 5779 5780 5780 5780 5780 5780 5780 5781 5780 5780 5780 5780 5780 5781 5781 5781 5781 5780 5780 5781 5781 5781 5781 5780 5780 5779 5778 5777 5775 5774 5773 5772 5771 5770 5769 5768 5767 5765 5764 5762 5761 5760 5757 5755 5752 5750 5749 5747 5744 5742 5740 5737 5735 5733 5730 5727 5724 5721 5717 5714 5710 5707 5704 5701 5699 5695 5692 5688 5685 5681 5678 5676
5764 5765 5765 5766 5767 5767 5769 5771 5771 5771 5771 5772 5772 5772 5774 5775 5776 5776 5777 5777 5777 5777 5778 5778 5777 5778 5777 5777 5777 5777 5777 5777 5776 5776 5776 5776 5776 5776 5776 5775 5775 5774 5772 5771 5770 5769 5768 5767 5766 5765 5764 5763 5761 5759 5758 5756 5754 5752 5749 5746 5745 5744 5743 5740 5737 5735 5732 5729 5727 5724 5721 5717 5714 5711 5708 5704 5700 5698 5695 5692 5689 5686 5682 5679 5675 5672 5669
5759 5760 5761 5761 5763 5763 5764 5766 5767 5767 5768 5768 5768 5768 5769 5770 5770 5771 5772 5772 5773 5773 5774 5774 5774 5774 5774 5774 5774 5773 5773 5772 5772 5771 5771 5771 5771 5771 5770 5770 5769 5769 5768 5767 5766 5765 5764 5763 5762 5761 5760 5758 5756 5755 5753 5751 5748 5746 5743 5741 5739 5739 5737 5735 5732 5729 5726 5723 5721 5718 5715 5711 5708 5705 5702 5698 5695 5692 5689 5686 5683 5680 5677 5673 5670 5667 5663
5755 5756 5756 5757 5759 5759 5760 5761 5761 5762 5764 5764 5764 5764 5764 5764 5765 5766 5766 5767 5768 5768 5769 5769 5769 5769 5769 5769 5769 5769 5769 5769 5768 5768 5767 5766 5766 5766 5765 5765 5764 5764 5763 5762 5762 5761 5759 5758 5757 5756 5755 5753 5751 5749 5747 5745 5742 5740 5738 5737 5735 5733 5731 5728 5726 5723 5720 5717 5715 5712 5708 5705 5702 5699 5695 5692 5689 5686 5683 5679 5676 5673 5670 5667 5664 5661 5658
5750 5751 5752 5753 5754 5755 5755 5756 5757 5758 5759 5759 5759 5759 5759 5759 5760 5761 5761 5761 5762 5763 5763 5763 5764 5764 5764 5764 5764 5764 5764 5764 5764 5764 5763 5762 5762 5761 5761 5760 5759 5759 5759 5758 5757 5756 5754 5753 5752 5751 5749 5748 5746 5743 5741 5739 5737 5735 5733 5732 5731 5728 5725 5723 5720 5717 5714 5711 5709 5705 5702 5698 5696 5692 5689 5685 5683 5680 5676 5672 5669 5666 5663 5661 5658 5655 5652
5744 5746 5747 5748 5749 5750 5750 5751 5752 5753 5753 5754 5755 5755 5756 5756 5756 5756 5756 5756 5757 5757 5757 5758 5759 5759 5759 5759 5759 5759 5759 5759 5759 5758 5758 5757 5757 5756 5755 5755 5754 5754 5754 5753 5752 5750 5749 5748 5746 5745 5743 5742 5740 5738 5735 5734 5733 5731 5728 5726 5724 5722 5719 5717 5714 5711 5708 5705 5701 5698 5695 5692 5688 5685 5681 5678 5675 5673 5669 5666 5662 5659 5657 5654 5651 5648 5646
5739 5740 5741 5742 5743 5744 5745 5746 5746 5747 5748 5749 5749 5750 5750 5750 5751 5751 5751 5752 5752 5753 5752 5752 5753 5753 5754 5754 5754 5754 5754 5754 5754 5753 5752 5752 5751 5751 5750 5749 5749 5749 5748 5747 5746 5744 5743 5742 5741 5739 5738 5736 5734 5732 5730 5729 5727 5726 5723 5720 5718 5715 5712 5710 5707 5704 5701 5698 5694 5691 5688 5685 5682 5678 5675 5672 5668 5665 5661 5658 5655 5653 5650 5648 5645 5642 5638
5732 5734 5735 5736 5737 5738 5739 5740 5740 5741 5742 5743 5743 5744 5744 5744 5745 5745 5746 5746 5747 5747 5747 5747 5747 5748 5748 5749 5749 5748 5748 5748 5748 5748 5748 5747 5747 5746 5745 5744 5744 5744 5743 5742 5740 5738 5737 5736 5735 5733 5732 5730 5728 5726 5724 5723 5721 5719 5716 5713 5711 5708 5705 5702 5700 5697 5694 5691 5688 5685 5681 5678 5675 5671 5668 5665 5662 5658 5654 5650 5648 5646 5643 5641 5639 5636 5632
5726 5728 5729 5730 5731 5732 5732 5733 5734 5735 5736 5737 5737 5738 5739 5739 5739 5739 5740 5740 5741 5742 5742 5741 5742 5742 5742 5742 5742 5742 5742 5742 5743 5743 5743 5743 5742 5742 5741 5740 5740 5739 5738 5736 5734 5733 5731 5730 5729 5727 5725 5723 5721 5719 5717 5715 5713 5711 5708 5706 5703 5700 5698 5695 5693 5690 5687 5684 5681 5678 5675 5672 5669 5665 5661 5657 5654 5651 5648 5644 5641 5639 5636 5634 5632 5630 5626
5720 5721 5723 5724 5725 5725 5726 5727 5727 5728 5730 5730 5730 5731 5733 5733 5733 5733 5734 5735 5736 5736 5736 5736 5736 5736 5736 5736 5736 5736 5735 5736 5737 5737 5738 5738 5737 5736 5736 5735 5734 5733 5732 5730 5728 5727 5725 5724 5722 5720 5718 5716 5713 5711 5709 5707 5705 5703 5701 5699 5696 5694 5691 5688 5686 5684 5681 5678 5674 5672 5669 5666 5663 5660 5656 5651 5647 5644 5642 5639 5636 5633 5630 5627 5625 5623 5620
5713 5714 5715 5717 5719 5719 5719 5720 5721 5722 5723 5724 5724 5725 5726 5727 5727 5728 5728 5730 5730 5731 5731 5730 5730 5730 5729 5729 5729 5730 5730 5730 5730 5731 5732 5731 5731 5730 5729 5729 5728 5726 5725 5723 5722 5720 5718 5717 5714 5712 5710 5708 5705 5703 5701 5699 5697 5695 5693 5691 5689 5686 5684 5681 5679 5677 5674 5670 5667 5665 5662 5658 5655 5652 5649 5646 5642 5639 5636 5634 5631 5628 5625 5621 5618 5616 5613
5704 5706 5708 5710 5712 5712 5712 5712 5714 5715 5717 5717 5719 5719 5719 5720 5721 5721 5721 5722 5723 5723 5724 5724 5723 5723 5723 5722 5722 5723 5724 5725 5725 5725 5725 5725 5724 5723 5722 5722 5721 5719 5717 5716 5714 5712 5710 5708 5706 5704 5702 5699 5696 5694 5692 5691 5689 5687 5685 5683 5681 5678 5676 5674 5672 5669 5666 5663 5660 5657 5654 5651 5648 5645 5642 5640 5637 5635 5632 5629 5626 5622 5619 5615 5611 5609 5606
5695 5697 5700 5702 5703 5703 5703 5705 5707 5709 5710 5711 5712 5713 5713 5713 5714 5714 5714 5714 5715 5716 5717 5717 5717 5717 5717 5716 5715 5716 5717 5717 5717 5718 5718 5718 5718 5716 5715 5714 5713 5711 5710 5708 5706 5704 5702 5699 5696 5694 5692 5689 5686 5684 5683 5683 5681 5679 5677 5675 5673 5670 5669 5667 5664 5661 5659 5656 5653 5650 5647 5644 5641 5639 5636 5634 5632 5630 5627 5625 5621 5617 5613 5610 5606 5602 5598
5687 5689 5691 5692 5693 5693 5694 5696 5699 5700 5701 5702 5704 5705 5706 5706 5706 5707 5707 5707 5707 5708 5709 5710 5710 5710 5710 5710 5710 5710 5710 5709 5709 5709 5709 5709 5709 5709 5707 5706 5705 5703 5701 5700 5698 5695 5693 5689 5687 5684 5682 5679 5677 5676 5676 5675 5674 5671 5669 5667 5666 5664 5662 5659 5657 5654 5652 5649 5647 5644 5641 5638 5636 5634 5631 5629 5626 5624 5621 5619 5615 5612 5608 5605 5601 5597 5592
5680 5681 5682 5683 5684 5684 5686 5687 5689 5689 5691 5693 5695 5696 5697 5699 5699 5700 5699 5699 5700 5701 5702 5702 5702 5703 5703 5704 5704 5704 5703 5702 5701 5701 5701 5701 5701 5701 5700 5699 5697 5695 5693 5691 5689 5686 5683 5681 5678 5676 5674 5672 5671 5670 5669 5668 5666 5663 5661 5661 5659 5657 5655 5652 5650 5647 5645 5643 5640 5638 5635 5633 5630 5628 5626 5623 5621 5618 5615 5612 5609 5605 5602 5599 5596 5592 5587
5672 5672 5673 5673 5674 5675 5677 5678 5679 5680 5682 5684 5685 5686 5687 5690 5691 5692 5692 5692 5692 5693 5693 5694 5694 5694 5695 5695 5696 5696 5696 5695 5694 5693 5693 5694 5695 5693 5691 5691 5691 5688 5685 5683 5681 5678 5676 5674 5672 5670 5669 5666 5665 5664 5662 5661 5658 5656 5655 5655 5653 5651 5649 5646 5643 5641 5639 5636 5634 5632 5629 5627 5625 5623 5620 5618 5615 5612 5609 5606 5602 5599 5596 5593 5590 5587 5583
5663 5664 5664 5665 5666 5667 5668 5669 5670 5672 5674 5675 5676 5677 5678 5680 5682 5682 5683 5683 5683 5684 5684 5685 5685 5684 5684 5685 5686 5687 5688 5687 5686 5685 5686 5687 5687 5685 5683 5684 5684 5682 5679 5677 5675 5672 5669 5668 5666 5664 5663 5661 5659 5657 5656 5654 5652 5650 5649 5648 5647 5645 5643 5640 5638 5635 5633 5631 5629 5626 5624 5622 5620 5617 5615 5612 5609 5606 5603 5600 5596 5593 5590 5587 5584 5581 5578
5655 5656 5656 5657 5659 5660 5660 5661 5662 5664 5665 5666 5667 5668 5669 5670 5671 5672 5672 5673 5673 5674 5674 5675 5675 5675 5675 5676 5677 5678 5679 5678 5678 5678 5678 5678 5678 5677 5675 5675 5676 5675 5673 5671 5669 5665 5663 5661 5660 5658 5657 5655 5653 5651 5649 5648 5646 5644 5643 5641 5640 5639 5637 5634 5632 5630 5628 5626 5623 5620 5618 5616 5615 5612 5609 5606 5603 5600 5597 5594 5590 5587 5584 5581 5578 5575 5573
5649 5649 5650 5650 5651 5652 5652 5653 5654 5654 5656 5657 5658 5658 5658 5659 5660 5661 5661 5662 5662 5663 5664 5665 5665 5665 5665 5666 5667 5668 5669 5669 5668 5669 5669 5670 5671 5670 5668 5667 5668 5669 5667 5665 5662 5660 5658 5656 5653 5652 5650 5648 5646 5644 5643 5641 5639 5638 5637 5635 5634 5632 5630 5628 5626 5624 5622 5620 5618 5615 5613 5611 5609 5606 5603 5601 5598 5595 5591 5588 5585 5582 5579 5576 5572 5570 5567
5643 5644 5644 5645 5645 5645 5645 5645 5646 5646 5647 5648 5649 5650 5650 5651 5651 5651 5652 5652 5653 5654 5654 5655 5655 5655 5654 5655 5656 5657 5658 5658 5657 5658 5659 5660 5660 5661 5660 5659 5660 5661 5660 5658 5655 5653 5651 5649 5647 5645 5643 5641 5640 5637 5636 5634 5633 5631 5630 5629 5627 5625 5624 5622 5620 5618 5616 5615 5613 5610 5608 5606 5603 5600 5598 5595 5592 5589 5586 5582 5579 5577 5574 5570 5567 5564 5561
5636 5637 5638 5639 5639 5639 5639 5639 5639 5639 5640 5641 5642 5642 5643 5644 5644 5644 5644 5644 5644 5645 5645 5646 5646 5646 5646 5646 5646 5647 5648 5648 5647 5648 5649 5649 5650 5651 5651 5652 5652 5651 5650 5649 5647 5645 5643 5642 5640 5638 5636 5635 5632 5630 5629 5627 5626 5625 5624 5622 5620 5618 5617 5615 5614 5612 5611 5609 5607 5604 5602 5600 5597 5594 5592 5589 5587 5584 5580 5577 5574 5572 5569 5565 5562 5558 5555
5631 5631 5632 5632 5633 5633 5633 5634 5634 5634 5634 5635 5635 5636 5636 5636 5637 5636 5636 5637 5637 5638 5638 5638 5639 5639 5639 5639 5639 5639 5639 5640 5640 5640 5640 5641 5642 5643 5644 5644 5643 5642 5642 5641 5639 5636 5635 5634 5632 5631 5629 5627 5625 5623 5622 5621 5620 5619 5617 5616 5614 5613 5611 5609 5608 5606 5604 5603 5601 5598 5596 5593 5591 5588 5586 5583 5581 5578 5575 5572 5569 5567 5564 5560 5557 5554 5550
5625 5625 5625 5626 5627 5627 5627 5628 5628 5629 5629 5629 5629 5629 5630 5630 5630 5630 5630 5631 5631 5632 5632 5632 5632 5632 5632 5632 5632 5633 5633 5633 5633 5633 5633 5634 5635 5636 5636 5636 5636 5635 5634 5632 5631 5629 5628 5627 5625 5624 5623 5620 5618 5616 5616 5615 5614 5613 5612 5611 5609 5607 5605 5604 5602 5600 5598 5597 5595 5592 5590 5587 5585 5582 5580 5578 5576 5573 5570 5567 5564 5561 5558 5555 5552 5549 5545
5619 5619 5620 5621 5621 5621 5622 5622 5622 5622 5623 5624 5624 5624 5624 5624 5624 5624 5625 5625 5625 5625 5626 5626 5626 5626 5626 5626 5626 5626 5626 5627 5627 5627 5627 5627 5628 5629 5629 5629 5628 5627 5626 5625 5624 5624 5622 5621 5619 5618 5616 5614 5611 5610 5610 5609 5608 5608 5608 5607 5604 5602 5599 5598 5596 5595 5593 5591 5589 5587 5584 5581 5579 5577 5575 5573 5571 5568 5565 5562 5559 5556 5553 5550 5547 5544 5540
5614 5615 5616 5616 5616 5616 5616 5616 5616 5616 5617 5618 5618 5618 5617 5617 5618 5619 5619 5619 5619 5619 5620 5620 5620 5620 5620 5620 5620 5620 5620 5620 5620 5620 5620 5620 5621 5622 5622 5622 5620 5619 5619 5620 5620 5620 5619 5617 5614 5612 5611 5609 5606 5605 5605 5604 5603 5603 5603 5602 5599 5596 5594 5593 5591 5589 5588 5585 5583 5581 5578 5576 5574 5572 5570 5568 5566 5563 5560 5557 5554 5551 5548 5545 5542 5539 5535
5610 5611 5611 5611 5611 5611 5611 5611 5611 5610 5611 5612 5612 5612 5611 5611 5612 5612 5612 5613 5613 5614 5614 5614 5615 5615 5615 5615 5615 5614 5614 5614 5614 5614 5614 5614 5614 5615 5615 5614 5613 5612 5611 5612 5613 5614 5614 5611 5609 5607 5605 5603 5602 5600 5599 5598 5598 5598 5598 5596 5594 5591 5589 5588 5586 5584 5582 5580 5577 5575 5573 5571 5569 5567 5565 5563 5561 5558 5555 5552 5549 5546 5543 5540 5537 5534 5530
5605 5605 5606 5607 5607 5606 5605 5606 5605 5605 5605 5606 5606 5605 5605 5605 5606 5606 5606 5607 5607 5608 5608 5608 5608 5609 5609 5609 5609 5609 5609 5609 5609 5609 5608 5608 5608 5608 5608 5607 5606 5605 5604 5604 5605 5606 5606 5605 5603 5601 5600 5598 5597 5596 5595 5594 5593 5593 5593 5591 5589 5586 5585 5583 5581 5579 5577 5575 5572 5570 5569 5567 5565 5563 5560 5558 5556 5553 5550 5547 5544 5541 5539 5536 5532 5529 5525
5599 5599 5600 5602 5602 5600 5600 5600 5600 5600 5600 5600 5600 5599 5599 5600 5601 5601 5601 5601 5602 5602 5602 5602 5602 5602 5602 5603 5603 5603 5603 5603 5603 5603 5603 5603 5603 5603 5602 5601 5600 5600 5599 5599 5599 5599 5598 5597 5596 5596 5595 5594 5593 5592 5590 5589 5588 5588 5587 5586 5583 5581 5579 5577 5576 5574 5572 5570 5568 5566 5564 5562 5560 5558 5555 5553 5550 5548 5545 5543 5540 5537 5534 5531 5528 5524 5521
5593 5593 5594 5595 5595 5595 5594 5594 5594 5594 5594 5594 5594 5594 5594 5595 5595 5595 5595 5595 5596 5596 5596 5596 5596 5596 5596 5596 5597 5597 5597 5597 5597 5598 5598 5597 5598 5598 5597 5596 5595 5594 5594 5594 5593 5592 5591 5591 5590 5590 5589 5589 5588 5586 5585 5584 5583 5582 5581 5580 5578 5576 5574 5572 5571 5569 5567 5565 5563 5561 5559 5557 5555 5553 5550 5548 5545 5543 5541 5538 5535 5533 5530 5526 5523 5520 5516
5586 5587 5587 5587 5588 5589 5590 5589 5589 5589 5589 5588 5588 5589 5589 5590 5590 5590 5590 5590 5590 5591 5591 5591 5591 5591 5591 5591 5591 5591 5591 5591 5592 5592 5592 5592 5592 5592 5591 5591 5590 5589 5589 5588 5588 5587 5586 5586 5585 5585 5584 5583 5582 5581 5580 5579 5578 5577 5576 5574 5572 5570 5569 5567 5566 5564 5562 5560 5559 5557 5555 5552 5550 5548 5546 5543 5541 5539 5536 5534 5531 5528 5525 5522 5519 5515 5511
5579 5580 5581 5582 5582 5584 5584 5584 5584 5584 5583 5583 5583 5584 5584 5584 5585 5585 5585 5585 5585 5585 5586 5586 5586 5586 5586 5586 5586 5586 5586 5586 5587 5587 5587 5587 5587 5586 5586 5586 5585 5584 5584 5583 5583 5582 5581 5581 5580 5579 5578 5578 5576 5575 5574 5574 5573 5572 5570 5568 5567 5565 5564 5563 5561 5559 5557 5556 5554 5552 5550 5548 5546 5544 5542 5539 5537 5535 5532 5529 5527 5524 5521 5517 5514 5510 5506
5573 5574 5575 5576 5577 5577 5578 5578 5579 5579 5578 5577 5578 5578 5578 5579 5579 5579 5580 5580 5581 5581 5581 5581 5581 5581 5581 5581 5581 5581 5581 5581 5582 5582 5582 5582 5581 5581 5581 5581 5580 5579 5579 5578 5578 5577 5576 5576 5575 5574 5573 5572 5571 5570 5569 5568 5567 5566 5565 5563 5562 5561 5560 5558 5556 5555 5553 5552 5550 5548 5546 5544 5542 5539 5537 5535 5533 5530 5528 5525 5522 5519 5516 5512 5509 5505 5502
5568 5568 5570 5571 5572 5572 5573 5573 5574 5573 5572 5572 5572 5573 5573 5573 5573 5574 5575 5575 5575 5575 5575 5575 5576 5576 5576 5576 5576 5576 5576 5577 5577 5577 5577 5577 5577 5576 5576 5576 5575 5574 5574 5573 5573 5572 5572 5571 5570 5569 5568 5567 5566 5565 5564 5563 5562 5562 5560 5559 5557 5557 5555 5554 5552 5550 5549 5547 5546 5544 5542 5539 5537 5535 5533 5531 5528 5526 5523 5520 5517 5514 5511 5508 5504 5501 5497
5563 5564 5565 5566 5567 5568 5568 5568 5568 5567 5566 5566 5567 5567 5568 5568 5569 5570 5571 5571 5570 5570 5571 5571 5571 5571 5571 5571 5572 5573 5573 5573 5573 5573 5573 5573 5572 5572 5572 5571 5570 5570 5569 5569 5568 5567 5567 5566 5565 5564 5563 5562 5561 5560 5560 5559 5558 5557 5555 5554 5553 5552 5551 5549 5547 5546 5544 5543 5541 5539 5537 5535 5533 5531 5528 5526 5524 5521 5518 5516 5513 5510 5507 5503 5499 5495 5491
5558 5559 5560 5561 5562 5562 5562 5562 5562 5561 5561 5561 5562 5562 5563 5564 5564 5565 5566 5565 5565 5566 5567 5567 5566 5566 5567 5567 5568 5569 5569 5569 5569 5569 5568 5568 5568 5568 5567 5566 5566 5565 5565 5564 5563 5562 5562 5561 5560 5559 5558 5557 5557 5556 5555 5555 5554 5552 5551 5550 5549 5548 5546 5544 5543 5541 5540 5538 5537 5535 5533 5531 5529 5526 5524 5522 5519 5516 5514 5511 5508 5505 5502 5498 5494 5491 5486
5555 5556 5557 5557 5557 5556 5556 5556 5556 5556 5556 5557 5557 5558 5559 5559 5560 5560 5560 5561 5561 5562 5562 5562 5562 5562 5562 5562 5563 5564 5564 5564 5564 5564 5563 5563 5563 5563 5562 5562 5561 5561 5560 5560 5559 5558 5557 5556 5556 5554 5553 5553 5552 5552 5551 5550 5549 5548 5547 5546 5545 5543 5542 5540 5538 5537 5535 5534 5532 5530 5528 5526 5524 5522 5520 5517 5515 5512 5509 5507 5504 5501 5497 5494 5490 5486 5482
5552 5554 5553 5551 5551 5551 5551 5551 5551 5551 5552 5552 5552 5553 5554 5555 5555 5555 5556 5556 5556 5557 5557 5557 5558 5558 5558 5558 5558 5559 5559 5559 5559 5559 5559 5558 5558 5558 5557 5557 5557 5556 5555 5555 5555 5553 5552 5552 5551 5550 5549 5548 5548 5547 5547 5546 5545 5544 5543 5542 5540 5539 5537 5535 5534 5532 5531 5529 5527 5525 5523 5522 5519 5517 5515 5513 5510 5508 5505 5503 5499 5496 5492 5489 5485 5481 5477
5548 5549 5548 5546 5545 5545 5545 5546 5546 5547 5548 5548 5548 5549 5549 5550 5550 5551 5551 5552 5552 5552 5552 5553 5554 5554 5554 5554 5554 5554 5554 5555 5555 5554 5554 5553 5553 5552 5552 5552 5552 5551 5550 5550 5550 5549 5548 5548 5547 5546 5545 5545 5544 5543 5542 5541 5540 5539 5538 5537 5535 5534 5532 5530 5529 5527 5526 5524 5522 5520 5519 5517 5515 5513 5511 5508 5506 5503 5500 5497 5494 5491 5488 5484 5481 5477 5473